Regional Weather Roundup
Issued by NWS

Home | Current Version | Previous Version | Text Only | Print | Product List | Glossary On
Versions: 1 2 3 4 5 6 7 8 9 10 11 12 13 14 15 16 17 18 19 20 21 22 23 24 25 26 27 28 29 30 31 32 33 34 35 36 37 38 39 40 41 42 43 44 45 46 47 48 49 50
000
ASUS43 KLMK 040210
RWRKY
KENTUCKY REGIONAL WEATHER ROUNDUP
NATIONAL WEATHER SERVICE LOUISVILLE KY
1000 PM EDT SUN MAY 03 2015

NOTE "FAIR" INDICATES FEW OR NO CLOUDS BELOW 12,000 FEET
WITH NO SIGNIFICANT WEATHER AND/OR OBSTRUCTIONS TO VISIBILITY.

KYZ001>023-026-027-061>063-070>075-040300-
WESTERN AND SOUTH CENTRAL KENTUCKY

CITY           SKY/WX    TMP DP  RH WIND       PRES   REMARKS
PADUCAH        CLEAR     68  48  48 S6        30.04R
HENDERSON      CLEAR     68  48  49 S6        30.05R
OWENSBORO      CLEAR     67  52  58 S5        30.08R
HOPKINSVILLE   CLEAR     70  49  47 SW3       30.09R
BOWLING GREEN  CLEAR     66  49  54 CALM      30.10R
GLASGOW        CLEAR     62  52  69 CALM      30.11R
$$

KYZ024-025-028>034-038-045-046-053-040300-
NORTH CENTRAL KENTUCKY

CITY           SKY/WX    TMP DP  RH WIND       PRES   REMARKS
LOUISVILLE/SDF PTCLDY    73  48  41 S6        30.08R
LOUISVILLE/LOU PTCLDY    71  49  45 SE3       30.09R
FORT KNOX      CLEAR     64  50  60 CALM      30.08R
$$

KYZ035>037-039>044-047>052-055>060-089>105-040300-
NORTHEAST KENTUCKY

CITY           SKY/WX    TMP DP  RH WIND       PRES   REMARKS
LEXINGTON      CLEAR     64  51  62 SE3       30.12R
COVINGTON      PTCLDY    65  47  52 S5        30.10R
FRANKFORT      PTCLDY    62  49  62 CALM      30.10R
$$

KYZ054-064>069-076>088-106>120-040300-
SOUTHEAST KENTUCKY

CITY           SKY/WX    TMP DP  RH WIND       PRES   REMARKS
JACKSON        CLEAR     71  38  29 CALM      30.14R
LONDON         MOCLDY    70  46  42 SW3       30.14R
SOMERSET       CLEAR     61  50  67 CALM      30.14R
MIDDLESBORO    PTCLDY    59  50  71 CALM      30.16R
MONTICELLO     CLEAR     60  51  72 CALM      30.16R
$$



USA.gov is the U.S. government's official web portal to all federal, state and local government web resources and services.